Vorticity
2 9 9 2 8 3 8 7 9 9 11 13 16 8 2 2 -4 3 2 -4 -5 1
7 4 3 -0 9 12 4 15 5 9 9 8 14 4 -5 4 6 4 0 2 -3 0
4 -6 3 1 3 4 11 7 16 11 15 9 8 5 11 -3 6 4 -4 6 -5 16
2 2 9 2 2 18 11 15 15 18 8 13 7 4 6 3 8 14 6 -8 6 22
2 0 2 3 7 11 7 10 11 12 15 8 9 19 10 0 2 -6 -6 2 26 11
4 5 3 6 14 14 10 6 7 13 15 13 9 18 14 -2 0 -6 2 23 19 15
3 6 7 29 15 10 3 5 8 17 10 9 20 11 12 8 5 16 13 14 14 11
4 6 26 3 3 3 8 5 9 8 9 19 21 -6 5 4 20 9 10 19 10 16
8 13 14 8 14 3 -4 2 12 11 11 12 6 8 13 5 11 15 14 13 18 16
18 8 10 11 3 16 -4 4 21 9 12 13 14 3 10 15 12 14 16 13 22 25
11 17 8 2 -7 61 23 8 1 7 7 5 -5 16 15 12 18 15 13 22 20 5
13 11 6 23 16 -32 -10 -1 20 9 1 16 16 16 14 17 17 14 18 19 10 8
16 -10 39 -53 18 -2 18 5 -3 10 13 18 17 18 17 15 15 13 15 13 9 8
21 3 -4 11 1 11 8 12 17 18 19 20 15 17 18 19 17 14 13 13 18 23
Height
5783 5780 5775 5773 5770 5765 5761 5756 5751 5748 5746 5742 5738 5735 5732 5729 5725 5721 5716 5712 5706 5701
5770 5769 5767 5761 5758 5755 5752 5746 5742 5737 5733 5730 5726 5722 5718 5716 5713 5709 5704 5699 5694 5687
5760 5756 5753 5750 5744 5740 5740 5736 5731 5725 5721 5719 5714 5709 5706 5701 5699 5695 5689 5684 5679 5672
5748 5743 5740 5737 5731 5725 5720 5717 5715 5712 5708 5704 5700 5696 5691 5685 5681 5679 5675 5669 5664 5658
5737 5733 5729 5722 5717 5712 5706 5702 5699 5696 5692 5689 5684 5680 5676 5672 5666 5662 5658 5653 5647 5642
5724 5719 5715 5710 5705 5699 5693 5688 5685 5680 5676 5672 5667 5664 5660 5655 5653 5648 5642 5636 5629 5625
5712 5707 5701 5695 5689 5685 5679 5674 5670 5666 5660 5655 5652 5649 5644 5639 5635 5629 5624 5619 5612 5607
5698 5694 5686 5679 5675 5671 5666 5660 5654 5649 5646 5642 5639 5634 5628 5622 5617 5613 5606 5602 5597 5592
5682 5678 5673 5666 5661 5656 5651 5645 5640 5635 5630 5626 5623 5619 5613 5607 5602 5596 5591 5586 5581 5577
5667 5662 5657 5651 5645 5640 5633 5629 5625 5621 5616 5611 5606 5601 5595 5590 5586 5581 5576 5572 5568 5564
5654 5649 5644 5637 5629 5623 5618 5617 5612 5607 5601 5596 5591 5586 5581 5575 5570 5566 5562 5559 5556 5553
5640 5634 5628 5622 5617 5613 5609 5603 5597 5591 5585 5579 5575 5571 5565 5561 5557 5552 5549 5546 5543 5541
5625 5619 5614 5607 5600 5597 5592 5586 5580 5574 5570 5565 5560 5556 5551 5546 5542 5540 5537 5533 5530 5527
5608 5603 5595 5592 5587 5581 5574 5567 5563 5558 5554 5549 5545 5541 5538 5535 5531 5528 5524 5521 5519 5516